This is the latest recevied weather packets stored in our database for station/object KC5DAQ-28. If no packets are shown the sender has not sent any weather packets the latest 1 day(s).
| Time | Temp. | Humidity | Pressure | Rain* | Wind** | Luminosity | Snow |
|---|---|---|---|---|---|---|---|
| 1778093762 | 29.44° C | 76% | 1003.6 hPa | 0 mm | - | 563 W/m² | - |
| 1778093523 | 29.44° C | 78% | 1003.7 hPa | 0 mm | - | 971 W/m² | - |
| 1778092982 | 28.89° C | 80% | 1003.7 hPa | 0 mm | - | 638 W/m² | - |
| 1778092923 | 28.89° C | 80% | 1003.8 hPa | 0 mm | - | 638 W/m² | - |
| 1778092683 | 28.33° C | 79% | 1003.8 hPa | 0 mm | - | 477 W/m² | - |
| 1778092623 | 28.33° C | 79% | 1003.8 hPa | 0 mm | - | 450 W/m² | - |
| 1778092564 | 28.33° C | 79% | 1003.8 hPa | 0 mm | - | 450 W/m² | - |
| 1778092383 | 28.33° C | 81% | 1003.8 hPa | 0 mm | - | 508 W/m² | - |
| 1778092323 | 28.33° C | 80% | 1003.8 hPa | 0 mm | - | 508 W/m² | - |
| 1778091783 | 27.78° C | 81% | 1004 hPa | 0 mm | - | 484 W/m² | - |
| 1778091663 | 27.78° C | 82% | 1004.1 hPa | 0 mm | - | 387 W/m² | - |
| 1778091423 | 27.78° C | 82% | 1004.1 hPa | 0 mm | - | 294 W/m² | - |
| 1778090942 | 27.78° C | 82% | 1004.3 hPa | 0 mm | - | 220 W/m² | - |
| 1778090403 | 27.78° C | 81% | 1004.5 hPa | 0 mm | - | 241 W/m² | - |
| 1778090342 | 27.78° C | 81% | 1004.5 hPa | 0 mm | - | 244 W/m² | - |
| 1778090162 | 27.78° C | 82% | 1004.6 hPa | 0 mm | - | 283 W/m² | - |
| 1778089265 | 27.78° C | 83% | 1004.9 hPa | 0 mm | - | 343 W/m² | - |
| 1778089204 | 27.78° C | 83% | 1004.9 hPa | 0 mm | - | 343 W/m² | - |
| 1778089144 | 27.78° C | 83% | 1004.9 hPa | 0 mm | - | 343 W/m² | - |
| 1778089024 | 27.78° C | 83% | 1004.9 hPa | 0 mm | - | 343 W/m² | - |
| 1778088843 | 27.78° C | 83% | 1005 hPa | 0 mm | - | 343 W/m² | - |
| 1778088664 | 27.22° C | 83% | 1005.1 hPa | 0 mm | - | 336 W/m² | - |
| 1778088542 | 27.22° C | 83% | 1005.2 hPa | 0 mm | - | 320 W/m² | - |
| 1778088122 | 27.22° C | 84% | 1005.2 hPa | 0 mm | - | 322 W/m² | - |
| 1778088063 | 27.22° C | 84% | 1005.2 hPa | 0 mm | - | 271 W/m² | - |
* Rain latest hour (hover to see other rain measurements)
** Current wind speed in m/s (hover to see current wind gust speed)